Belmar-Farmingdale, NJ

7:15 PM EDT on August 21, 2019 (GMT -0400)
Allaire

Weather History for KBLM - July, 2019

Change the Weather History Date:

Sunday, July 21, 2019

  Actual Average Record
Temperature  
Mean Temperature 90 °F -  
Max Temperature 99 °F 79 °F 99 °F (2019)
Min Temperature 78 °F 63 °F 57 °F (1997)
Cooling Degree Days 24    
Growing Degree Days 40 (Base 50)    
Moisture  
Dew Point 76 °F    
Average Humidity 67    
Maximum Humidity 90    
Minimum Humidity 42    
Precipitation  
Precipitation 0.00 in - - ()
Sea Level Pressure  
Sea Level Pressure 29.83 in    
Wind  
Wind Speed 7 mph (WSW)    
Max Wind Speed 13 mph    
Max Gust Speed 18 mph    
Visibility 10 miles    
Events Rain , Thunderstorm    
Averages and records for this station are not official NWS values.
T = Trace of Precipitation, MM = Missing Value Source: NWS Daily Summary

Daily Weather History Graph

Daily Weather History Graph

Search for Another Location

Airport or City:

Astronomy

Jul. 21, 2019 Rise Set
Actual Time 5:44 AM EDT 8:20 PM EDT
Civil Twilight 5:12 AM EDT 8:52 PM EDT
Nautical Twilight 4:33 AM EDT 9:31 PM EDT
Astronomical Twilight 3:49 AM EDT 10:15 PM EDT
Moon 11:14 PM EDT 10:02 AM EDT
Length of Visible Light 15h 39m
Length of Day
14h 36m
Waning Gibbous, 80% of the Moon is Illuminated
Jul 21
Waning Gibbous
Jul 24
Last Quarter
Jul 31
New
Aug 7
First Quarter
Aug 15
Full

Hourly Weather History & Observations

Time (EDT) Temp. Heat Index Dew Point Humidity Pressure Visibility Wind Dir Wind Speed Gust Speed Precip Events Conditions
12:56 AM 82.9 °F 91.8 °F 77.0 °F 82% 29.83 in 10.0 mi SSW 5.8 mph - N/A   Clear
1:56 AM 82.9 °F 91.8 °F 77.0 °F 82% 29.82 in 10.0 mi SW 5.8 mph - N/A   Clear
2:56 AM 82.0 °F 90.2 °F 77.0 °F 85% 29.81 in 10.0 mi SW 4.6 mph - N/A   Partly Cloudy
3:56 AM 81.0 °F 87.9 °F 77.0 °F 88% 29.81 in 10.0 mi WSW 5.8 mph - N/A   Clear
4:56 AM 80.1 °F 85.8 °F 77.0 °F 90% 29.81 in 9.0 mi WSW 4.6 mph - N/A   Clear
5:56 AM 80.1 °F 85.4 °F 75.9 °F 87% 29.81 in 8.0 mi SW 5.8 mph - N/A   Clear
6:56 AM 81.0 °F 87.9 °F 77.0 °F 88% 29.83 in 7.0 mi WSW 5.8 mph - N/A   Clear
7:56 AM 84.9 °F 95.3 °F 77.0 °F 77% 29.86 in 10.0 mi West 9.2 mph - N/A   Clear
8:56 AM 88.0 °F 101.3 °F 78.1 °F 72% 29.86 in 10.0 mi West 5.8 mph - N/A   Clear
9:56 AM 91.0 °F 102.9 °F 75.9 °F 61% 29.85 in 10.0 mi West 9.2 mph - N/A   Clear
10:56 AM 91.9 °F 105.9 °F 77.0 °F 62% 29.84 in 10.0 mi West 11.5 mph - N/A   Clear
11:56 AM 93.9 °F 106.9 °F 75.9 °F 56% 29.84 in 10.0 mi West 12.7 mph - N/A   Clear
12:56 PM 97.0 °F 110.9 °F 75.9 °F 51% 29.83 in 10.0 mi WSW 9.2 mph - N/A   Clear
1:56 PM 97.0 °F 107.7 °F 73.9 °F 47% 29.81 in 10.0 mi West 11.5 mph - N/A   Clear
2:56 PM 99.0 °F 108.5 °F 72.0 °F 42% 29.81 in 10.0 mi WSW 12.7 mph 18.4 mph N/A   Clear
3:56 PM 98.1 °F 107.2 °F 72.0 °F 43% 29.80 in 10.0 mi West 11.5 mph - N/A   Partly Cloudy
4:56 PM 98.1 °F 109.5 °F 73.9 °F 46% 29.78 in 10.0 mi West 10.4 mph - N/A   Clear
5:56 PM 97.0 °F 110.9 °F 75.9 °F 51% 29.79 in 10.0 mi WSW 6.9 mph - N/A   Clear
6:56 PM 95.0 °F 109.7 °F 77.0 °F 56% 29.80 in 10.0 mi West 6.9 mph - N/A   Clear
7:56 PM 91.0 °F 106.2 °F 78.1 °F 66% 29.83 in 10.0 mi WSW 4.6 mph - N/A   Clear
8:56 PM 89.1 °F 103.2 °F 78.1 °F 70% 29.81 in 10.0 mi SW 8.1 mph - N/A   Mostly Cloudy
9:56 PM 87.1 °F 95.4 °F 73.9 °F 65% 29.85 in 10.0 mi NW 6.9 mph - N/A   Clear
10:56 PM 84.9 °F 90.1 °F 71.1 °F 63% 29.85 in 10.0 mi West 3.5 mph - N/A Thunderstorm Clear
11:56 PM 78.1 °F - 72.0 °F 81% 29.88 in 10.0 mi WSW 11.5 mph - 0.00 in Rain , Thunderstorm Light Thunderstorms and Rain